TimeCST,TemperatureF,Dew PointF,Humidity,Sea Level PressureIn,VisibilityMPH,Wind Direction,Wind SpeedMPH,Gust SpeedMPH,PrecipitationIn,Events,Conditions,WindDirDegrees,DateUTC
12:52 AM,18.0,10.9,74,30.41,10.0,Calm,Calm,-,N/A,,Clear,0,2012-12-05 06:52:00
1:52 AM,18.0,10.9,74,30.38,10.0,Calm,Calm,-,N/A,,Clear,0,2012-12-05 07:52:00
2:52 AM,17.1,10.0,74,30.38,10.0,East,6.9,-,N/A,,Clear,100,2012-12-05 08:52:00
3:52 AM,17.1,10.9,77,30.39,10.0,SE,6.9,-,N/A,,Clear,130,2012-12-05 09:52:00
4:52 AM,16.0,10.9,81,30.38,10.0,ESE,8.1,-,N/A,,Clear,110,2012-12-05 10:52:00
5:52 AM,19.0,12.0,74,30.36,10.0,SE,10.4,-,N/A,,Clear,130,2012-12-05 11:52:00
6:52 AM,19.0,12.0,74,30.34,10.0,SSE,11.5,-,N/A,,Clear,150,2012-12-05 12:52:00
8:52 AM,23.0,14.0,68,30.33,10.0,SE,18.4,-,N/A,,Clear,140,2012-12-05 14:52:00
9:52 AM,28.0,16.0,61,30.30,10.0,SSE,21.9,-,N/A,,Clear,150,2012-12-05 15:52:00
10:52 AM,32.0,18.0,56,30.27,10.0,SSE,18.4,-,N/A,,Clear,160,2012-12-05 16:52:00
11:52 AM,35.1,19.9,54,30.21,10.0,SSE,23.0,28.8,N/A,,Clear,160,2012-12-05 17:52:00
12:52 PM,37.9,21.0,51,30.15,10.0,SSE,23.0,28.8,N/A,,Clear,160,2012-12-05 18:52:00
1:52 PM,39.9,23.0,51,30.11,10.0,SSE,21.9,31.1,N/A,,Clear,160,2012-12-05 19:52:00
2:52 PM,43.0,24.1,47,30.06,10.0,SSE,23.0,28.8,N/A,,Clear,160,2012-12-05 20:52:00
3:52 PM,43.0,24.1,47,30.02,10.0,SSE,21.9,29.9,N/A,,Clear,160,2012-12-05 21:52:00
4:52 PM,42.1,25.0,51,30.00,10.0,SSE,24.2,32.2,N/A,,Clear,160,2012-12-05 22:52:00
5:52 PM,39.9,25.0,55,29.97,10.0,SSE,25.3,32.2,N/A,,Partly Cloudy,160,2012-12-05 23:52:00
6:52 PM,39.9,26.1,58,29.96,10.0,SSE,23.0,28.8,N/A,,Partly Cloudy,160,2012-12-06 00:52:00
7:52 PM,41.0,28.0,60,29.94,10.0,South,21.9,31.1,N/A,,Mostly Cloudy,170,2012-12-06 01:52:00
8:52 PM,43.0,28.9,58,29.91,10.0,South,25.3,29.9,N/A,,Overcast,170,2012-12-06 02:52:00
9:52 PM,44.1,30.0,58,29.90,10.0,South,24.2,34.5,N/A,,Scattered Clouds,170,2012-12-06 03:52:00
10:52 PM,44.1,30.0,58,29.88,10.0,South,24.2,-,N/A,,Overcast,170,2012-12-06 04:52:00
11:52 PM,44.1,30.9,60,29.86,10.0,South,20.7,-,N/A,,Overcast,170,2012-12-06 05:52:00